QPF
0.08 0.09 0.11 0.09 0.10 0.08 0.05 0.04 0.05 0.07 0.09 0.07 0.07 0.05 0.04 0.03 0.03 0.02 0.01 0.02 0.04 0.04 0.03 0.03 0.05 0.05 0.03 0.02 0.02 0.02 0.02 0.04 0.04 0.03 0.04 0.04 0.04 0.06 0.06 0.05 0.05 0.04 0.04
0.07 0.10 0.10 0.10 0.11 0.09 0.05 0.06 0.07 0.09 0.10 0.08 0.06 0.05 0.03 0.04 0.03 0.02 0.02 0.03 0.04 0.04 0.04 0.03 0.04 0.06 0.04 0.02 0.02 0.02 0.02 0.03 0.03 0.04 0.05 0.04 0.04 0.06 0.06 0.07 0.08 0.05 0.04
0.10 0.08 0.07 0.08 0.11 0.10 0.09 0.12 0.14 0.12 0.09 0.09 0.07 0.04 0.03 0.03 0.03 0.02 0.03 0.02 0.04 0.04 0.04 0.03 0.03 0.04 0.03 0.02 0.03 0.03 0.02 0.03 0.03 0.03 0.04 0.02 0.03 0.05 0.07 0.10 0.13 0.07 0.04
0.09 0.05 0.04 0.06 0.06 0.07 0.08 0.11 0.10 0.07 0.07 0.08 0.06 0.04 0.03 0.03 0.03 0.03 0.04 0.03 0.03 0.04 0.04 0.04 0.02 0.03 0.04 0.03 0.03 0.02 0.02 0.03 0.04 0.03 0.02 0.02 0.01 0.03 0.05 0.08 0.09 0.06 0.04
0.07 0.05 0.05 0.05 0.04 0.04 0.04 0.05 0.04 0.04 0.04 0.04 0.04 0.03 0.03 0.03 0.03 0.03 0.03 0.03 0.03 0.05 0.05 0.05 0.03 0.04 0.04 0.03 0.02 0.03 0.03 0.04 0.06 0.03 0.01 0.01 0.02 0.03 0.05 0.05 0.05 0.05 0.05
0.13 0.08 0.05 0.04 0.04 0.03 0.02 0.02 0.02 0.03 0.02 0.02 0.03 0.02 0.02 0.02 0.02 0.04 0.04 0.04 0.03 0.05 0.06 0.05 0.04 0.04 0.04 0.03 0.03 0.03 0.03 0.04 0.04 0.01 0.01 0.01 0.03 0.04 0.04 0.04 0.03 0.04 0.06
0.10 0.07 0.07 0.05 0.04 0.03 0.03 0.02 0.01 0.02 0.01 0.01 0.02 0.01 0.02 0.02 0.02 0.03 0.06 0.05 0.04 0.04 0.05 0.05 0.04 0.03 0.03 0.02 0.02 0.03 0.03 0.03 0.02 0.01 0.01 0.02 0.04 0.06 0.05 0.07 0.05 0.05 0.06
0.05 0.05 0.04 0.02 0.01 0.02 0.02 0.02 0.01 0.01 0.01 0.02 0.02 0.02 0.02 0.03 0.03 0.03 0.02 0.03 0.03 0.03 0.03 0.04 0.03 0.02 0.01 0.01 0.03 0.03 0.04 0.03 0.02 0.02 0.01 0.01 0.04 0.05 0.05 0.07 0.06 0.04 0.04
0.08 0.06 0.02 0.00 0.00 0.01 0.02 0.02 0.01 0.01 0.02 0.02 0.03 0.03 0.03 0.03 0.03 0.02 0.02 0.02 0.02 0.02 0.02 0.02 0.02 0.01 0.01 0.01 0.02 0.03 0.04 0.04 0.03 0.03 0.02 0.02 0.04 0.05 0.05 0.07 0.07 0.03 0.02
0.02 0.02 0.01 0.00 0.00 0.00 0.01 0.01 0.01 0.02 0.02 0.02 0.02 0.03 0.03 0.02 0.01 0.02 0.02 0.02 0.02 0.02 0.02 0.02 0.01 0.01 0.01 0.02 0.02 0.02 0.02 0.02 0.03 0.03 0.02 0.03 0.07 0.06 0.04 0.05 0.07 0.04 0.03
0.02 0.01 0.01 0.00 0.00 0.00 0.00 0.01 0.02 0.02 0.02 0.02 0.01 0.01 0.01 0.00 0.00 0.01 0.01 0.01 0.02 0.02 0.02 0.01 0.01 0.01 0.01 0.01 0.01 0.01 0.01 0.03 0.03 0.02 0.02 0.07 0.11 0.07 0.04 0.04 0.05 0.04 0.03
0.02 0.02 0.01 0.01 0.00 0.00 0.00 0.00 0.00 0.00 0.00 0.00 0.00 0.00 0.00 0.00 0.00 0.00 0.01 0.01 0.01 0.01 0.01 0.01 0.01 0.02 0.01 0.01 0.01 0.01 0.01 0.04 0.03 0.02 0.03 0.10 0.10 0.08 0.06 0.04 0.03 0.03 0.03
0.01 0.01 0.01 0.00 0.00 0.00 0.00 0.00 0.00 0.00 0.00 0.00 0.00 0.00 0.00 0.00 0.00 0.00 0.00 0.00 0.00 0.00 0.01 0.01 0.01 0.01 0.01 0.02 0.02 0.02 0.02 0.03 0.03 0.03 0.03 0.07 0.09 0.09 0.06 0.04 0.03 0.03 0.03
0.01 0.01 0.01 0.00 0.00 0.00 0.00 0.00 0.00 0.00 0.00 0.00 0.00 0.00 0.00 0.00 0.00 0.00 0.00 0.00 0.00 0.00 0.01 0.01 0.01 0.01 0.02 0.02 0.02 0.03 0.04 0.04 0.04 0.03 0.03 0.05 0.07 0.08 0.07 0.04 0.05 0.04 0.04
0.01 0.01 0.00 0.00 0.01 0.01 0.00 0.00 0.00 0.00 0.00 0.00 0.00 0.00 0.00 0.00 0.00 0.00 0.00 0.00 0.00 0.00 0.01 0.01 0.00 0.01 0.01 0.01 0.01 0.03 0.03 0.04 0.03 0.01 0.02 0.04 0.05 0.06 0.06 0.04 0.04 0.04 0.03
0.00 0.00 0.00 0.00 0.00 0.02 0.02 0.01 0.00 0.00 0.00 0.00 0.00 0.00 0.00 0.00 0.00 0.00 0.00 0.00 0.00 0.00 0.00 0.00 0.00 0.00 0.01 0.01 0.01 0.02 0.02 0.05 0.02 0.01 0.01 0.02 0.04 0.05 0.06 0.06 0.06 0.05 0.04
0.00 0.00 0.00 0.00 0.00 0.01 0.02 0.02 0.01 0.00 0.00 0.00 0.00 0.00 0.00 0.00 0.00 0.00 0.00 0.00 0.00 0.00 0.00 0.00 0.00 0.00 0.00 0.00 0.01 0.01 0.02 0.02 0.02 0.01 0.01 0.01 0.01 0.02 0.03 0.05 0.06 0.05 0.04
0.00 0.00 0.00 0.00 0.00 0.00 0.01 0.02 0.02 0.01 0.01 0.00 0.00 0.00 0.00 0.00 0.00 0.00 0.00 0.00 0.00 0.00 0.01 0.01 0.00 0.01 0.00 0.00 0.01 0.02 0.02 0.01 0.01 0.01 0.02 0.02 0.02 0.01 0.02 0.03 0.05 0.05 0.04
0.01 0.00 0.00 0.00 0.00 0.00 0.00 0.01 0.01 0.01 0.01 0.01 0.01 0.00 0.00 0.00 0.00 0.00 0.00 0.00 0.00 0.00 0.01 0.01 0.01 0.01 0.01 0.01 0.02 0.02 0.02 0.02 0.01 0.01 0.02 0.02 0.02 0.02 0.02 0.02 0.03 0.03 0.03
0.00 0.00 0.00 0.00 0.00 0.00 0.00 0.00 0.01 0.01 0.01 0.01 0.01 0.00 0.00 0.00 0.00 0.00 0.00 0.00 0.00 0.00 0.00 0.01 0.01 0.01 0.02 0.02 0.01 0.01 0.02 0.01 0.01 0.01 0.02 0.02 0.04 0.05 0.03 0.03 0.02 0.02 0.02
0.01 0.00 0.00 0.00 0.00 0.00 0.00 0.00 0.00 0.01 0.01 0.01 0.01 0.00 0.00 0.00 0.00 0.00 0.00 0.00 0.00 0.00 0.00 0.00 0.00 0.00 0.01 0.02 0.01 0.01 0.01 0.01 0.01 0.02 0.02 0.02 0.05 0.07 0.04 0.03 0.03 0.02 0.02
0.01 0.00 0.00 0.00 0.00 0.00 0.00 0.01 0.01 0.00 0.00 0.01 0.02 0.01 0.00 0.00 0.00 0.00 0.00 0.00 0.00 0.00 0.00 0.00 0.00 0.00 0.01 0.01 0.01 0.00 0.01 0.01 0.01 0.01 0.01 0.02 0.03 0.04 0.04 0.04 0.04 0.03 0.02
0.01 0.00 0.00 0.00 0.00 0.00 0.00 0.01 0.01 0.01 0.00 0.01 0.01 0.02 0.01 0.00 0.00 0.00 0.00 0.00 0.00 0.00 0.00 0.00 0.00 0.00 0.00 0.00 0.00 0.00 0.00 0.01 0.01 0.00 0.01 0.02 0.03 0.03 0.04 0.03 0.03 0.03 0.03
0.01 0.01 0.00 0.00 0.00 0.00 0.00 0.00 0.00 0.00 0.00 0.00 0.01 0.02 0.02 0.00 0.00 0.00 0.00 0.00 0.00 0.00 0.00 0.00 0.00 0.00 0.00 0.00 0.01 0.00 0.00 0.00 0.00 0.01 0.01 0.01 0.01 0.02 0.04 0.04 0.04 0.04 0.05
0.01 0.01 0.01 0.00 0.00 0.00 0.00 0.00 0.00 0.00 0.00 0.01 0.01 0.01 0.03 0.02 0.00 0.00 0.00 0.00 0.00 0.00 0.00 0.00 0.00 0.00 0.00 0.00 0.00 0.00 0.00 0.00 0.00 0.01 0.00 0.00 0.01 0.02 0.03 0.04 0.04 0.04 0.04
0.02 0.01 0.01 0.00 0.00 0.00 0.00 0.00 0.00 0.00 0.00 0.00 0.01 0.01 0.01 0.03 0.02 0.01 0.00 0.00 0.00 0.00 0.00 0.00 0.00 0.00 0.00 0.00 0.00 0.00 0.00 0.00 0.00 0.00 0.00 0.00 0.01 0.01 0.02 0.03 0.04 0.05 0.04
MSLP
1017.08 1016.47 1015.92 1015.52 1015.30 1015.25 1015.33 1015.48 1015.63 1015.72 1015.73 1015.67 1015.57 1015.48 1015.44 1015.47 1015.57 1015.72 1015.87 1015.98 1016.03 1016.01 1015.92 1015.80 1015.67 1015.56 1015.48 1015.42 1015.38 1015.33 1015.24 1015.12 1014.97 1014.79 1014.61 1014.46 1014.33 1014.22 1014.12 1014.03 1013.92 1013.80 1013.67
1017.31 1016.73 1016.22 1015.86 1015.67 1015.64 1015.72 1015.85 1015.98 1016.05 1016.06 1016.00 1015.92 1015.85 1015.84 1015.89 1015.99 1016.13 1016.25 1016.33 1016.34 1016.28 1016.17 1016.02 1015.88 1015.75 1015.65 1015.57 1015.51 1015.43 1015.33 1015.19 1015.03 1014.86 1014.70 1014.56 1014.45 1014.35 1014.28 1014.20 1014.11 1014.01 1013.91
1017.44 1016.88 1016.41 1016.10 1015.96 1015.97 1016.07 1016.21 1016.34 1016.41 1016.42 1016.38 1016.32 1016.27 1016.26 1016.30 1016.38 1016.48 1016.55 1016.58 1016.55 1016.46 1016.32 1016.16 1016.01 1015.87 1015.77 1015.69 1015.62 1015.53 1015.43 1015.30 1015.15 1015.00 1014.86 1014.74 1014.64 1014.56 1014.49 1014.43 1014.36 1014.29 1014.22
1017.46 1016.93 1016.52 1016.27 1016.18 1016.24 1016.38 1016.54 1016.69 1016.77 1016.79 1016.76 1016.71 1016.66 1016.64 1016.65 1016.69 1016.73 1016.74 1016.72 1016.65 1016.53 1016.38 1016.22 1016.08 1015.97 1015.88 1015.81 1015.75 1015.67 1015.58 1015.47 1015.35 1015.22 1015.10 1015.00 1014.91 1014.84 1014.78 1014.72 1014.66 1014.60 1014.57
1017.39 1016.91 1016.56 1016.39 1016.37 1016.48 1016.66 1016.85 1017.00 1017.09 1017.11 1017.09 1017.03 1016.97 1016.92 1016.90 1016.89 1016.87 1016.83 1016.76 1016.65 1016.52 1016.38 1016.25 1016.14 1016.06 1016.01 1015.97 1015.92 1015.87 1015.79 1015.71 1015.61 1015.51 1015.41 1015.32 1015.24 1015.17 1015.09 1015.03 1014.97 1014.92 1014.91
1017.29 1016.86 1016.59 1016.49 1016.54 1016.70 1016.91 1017.11 1017.27 1017.35 1017.36 1017.32 1017.25 1017.17 1017.10 1017.04 1016.98 1016.91 1016.83 1016.72 1016.61 1016.48 1016.37 1016.27 1016.21 1016.17 1016.15 1016.14 1016.12 1016.08 1016.03 1015.97 1015.89 1015.81 1015.73 1015.65 1015.57 1015.49 1015.41 1015.33 1015.26 1015.22 1015.21
1017.18 1016.84 1016.65 1016.63 1016.74 1016.94 1017.15 1017.34 1017.48 1017.53 1017.52 1017.46 1017.37 1017.27 1017.17 1017.08 1016.99 1016.90 1016.78 1016.66 1016.55 1016.44 1016.35 1016.30 1016.27 1016.27 1016.28 1016.29 1016.29 1016.27 1016.23 1016.18 1016.13 1016.07 1016.00 1015.94 1015.86 1015.78 1015.68 1015.58 1015.50 1015.45 1015.44
1017.13 1016.88 1016.78 1016.84 1016.99 1017.20 1017.41 1017.56 1017.65 1017.66 1017.60 1017.51 1017.40 1017.29 1017.18 1017.08 1016.97 1016.86 1016.73 1016.61 1016.49 1016.40 1016.34 1016.31 1016.31 1016.34 1016.36 1016.39 1016.39 1016.37 1016.34 1016.30 1016.26 1016.22 1016.17 1016.12 1016.06 1015.98 1015.88 1015.78 1015.69 1015.63 1015.61
1017.15 1017.00 1017.00 1017.12 1017.31 1017.51 1017.68 1017.78 1017.80 1017.75 1017.65 1017.52 1017.40 1017.28 1017.17 1017.07 1016.96 1016.84 1016.71 1016.58 1016.47 1016.37 1016.32 1016.30 1016.30 1016.33 1016.36 1016.37 1016.36 1016.34 1016.31 1016.28 1016.25 1016.23 1016.22 1016.20 1016.16 1016.10 1016.03 1015.93 1015.84 1015.77 1015.74
1017.27 1017.22 1017.31 1017.48 1017.68 1017.86 1017.97 1018.00 1017.95 1017.83 1017.68 1017.53 1017.40 1017.28 1017.18 1017.09 1016.99 1016.87 1016.73 1016.59 1016.46 1016.35 1016.28 1016.24 1016.23 1016.24 1016.25 1016.24 1016.22 1016.19 1016.16 1016.13 1016.12 1016.13 1016.15 1016.18 1016.18 1016.17 1016.12 1016.05 1015.98 1015.92 1015.89
1017.49 1017.54 1017.69 1017.90 1018.10 1018.24 1018.29 1018.24 1018.11 1017.94 1017.75 1017.58 1017.44 1017.33 1017.25 1017.17 1017.08 1016.96 1016.81 1016.64 1016.48 1016.34 1016.23 1016.15 1016.11 1016.09 1016.07 1016.04 1016.00 1015.96 1015.93 1015.91 1015.92 1015.97 1016.03 1016.10 1016.17 1016.21 1016.21 1016.18 1016.14 1016.10 1016.08
1017.79 1017.92 1018.13 1018.35 1018.53 1018.63 1018.61 1018.50 1018.31 1018.08 1017.86 1017.68 1017.54 1017.46 1017.39 1017.33 1017.24 1017.11 1016.94 1016.74 1016.53 1016.34 1016.18 1016.06 1015.97 1015.91 1015.87 1015.82 1015.78 1015.73 1015.71 1015.71 1015.74 1015.82 1015.92 1016.04 1016.15 1016.25 1016.31 1016.34 1016.34 1016.32 1016.31
1018.15 1018.34 1018.57 1018.80 1018.96 1019.01 1018.94 1018.77 1018.53 1018.28 1018.04 1017.85 1017.73 1017.66 1017.61 1017.55 1017.46 1017.32 1017.12 1016.89 1016.63 1016.39 1016.18 1016.01 1015.88 1015.79 1015.73 1015.67 1015.63 1015.60 1015.59 1015.60 1015.65 1015.74 1015.88 1016.03 1016.18 1016.33 1016.44 1016.52 1016.56 1016.58 1016.59
1018.53 1018.75 1018.99 1019.21 1019.34 1019.35 1019.25 1019.05 1018.79 1018.53 1018.29 1018.11 1018.00 1017.93 1017.89 1017.84 1017.74 1017.58 1017.36 1017.09 1016.80 1016.51 1016.26 1016.05 1015.89 1015.78 1015.71 1015.66 1015.64 1015.62 1015.62 1015.65 1015.71 1015.81 1015.95 1016.11 1016.28 1016.45 1016.59 1016.71 1016.79 1016.84 1016.88
1018.90 1019.12 1019.36 1019.55 1019.66 1019.66 1019.54 1019.34 1019.09 1018.83 1018.61 1018.44 1018.33 1018.27 1018.23 1018.17 1018.06 1017.89 1017.65 1017.36 1017.04 1016.73 1016.45 1016.22 1016.04 1015.93 1015.86 1015.83 1015.82 1015.83 1015.85 1015.89 1015.95 1016.03 1016.15 1016.29 1016.46 1016.62 1016.77 1016.91 1017.02 1017.10 1017.16
1019.23 1019.44 1019.65 1019.82 1019.91 1019.91 1019.82 1019.64 1019.42 1019.19 1018.99 1018.84 1018.73 1018.66 1018.61 1018.53 1018.41 1018.23 1017.99 1017.69 1017.37 1017.05 1016.76 1016.52 1016.35 1016.24 1016.19 1016.17 1016.19 1016.22 1016.26 1016.30 1016.35 1016.41 1016.49 1016.59 1016.70 1016.83 1016.97 1017.10 1017.22 1017.33 1017.41
1019.51 1019.69 1019.87 1020.03 1020.12 1020.14 1020.08 1019.96 1019.79 1019.61 1019.44 1019.29 1019.18 1019.09 1019.01 1018.91 1018.78 1018.60 1018.36 1018.08 1017.77 1017.47 1017.18 1016.95 1016.78 1016.68 1016.64 1016.65 1016.69 1016.75 1016.80 1016.84 1016.88 1016.91 1016.94 1016.98 1017.03 1017.11 1017.21 1017.32 1017.45 1017.56 1017.66
1019.75 1019.89 1020.04 1020.18 1020.28 1020.34 1020.34 1020.29 1020.20 1020.07 1019.93 1019.80 1019.67 1019.55 1019.43 1019.30 1019.16 1018.97 1018.76 1018.50 1018.22 1017.94 1017.67 1017.46 1017.29 1017.20 1017.17 1017.20 1017.27 1017.35 1017.42 1017.48 1017.51 1017.51 1017.49 1017.47 1017.47 1017.49 1017.53 1017.62 1017.72 1017.84 1017.96
1019.97 1020.07 1020.18 1020.31 1020.43 1020.54 1020.61 1020.65 1020.63 1020.57 1020.46 1020.33 1020.17 1020.02 1019.85 1019.70 1019.53 1019.35 1019.15 1018.93 1018.69 1018.44 1018.20 1017.99 1017.84 1017.75 1017.73 1017.77 1017.86 1017.97 1018.08 1018.16 1018.21 1018.20 1018.16 1018.10 1018.04 1018.00 1018.00 1018.04 1018.12 1018.22 1018.34
1020.20 1020.24 1020.32 1020.43 1020.58 1020.74 1020.89 1021.01 1021.08 1021.08 1021.00 1020.87 1020.69 1020.49 1020.28 1020.09 1019.90 1019.73 1019.55 1019.36 1019.16 1018.95 1018.73 1018.54 1018.39 1018.30 1018.28 1018.34 1018.45 1018.60 1018.75 1018.88 1018.96 1018.97 1018.94 1018.86 1018.77 1018.68 1018.63 1018.63 1018.67 1018.76 1018.86
1020.44 1020.43 1020.47 1020.57 1020.73 1020.94 1021.16 1021.37 1021.51 1021.57 1021.53 1021.40 1021.20 1020.96 1020.71 1020.48 1020.28 1020.10 1019.95 1019.80 1019.64 1019.45 1019.26 1019.08 1018.93 1018.84 1018.82 1018.89 1019.03 1019.22 1019.43 1019.62 1019.76 1019.82 1019.82 1019.75 1019.65 1019.54 1019.45 1019.41 1019.41 1019.46 1019.53
1020.71 1020.65 1020.65 1020.72 1020.89 1021.14 1021.42 1021.70 1021.91 1022.03 1022.03 1021.90 1021.69 1021.42 1021.15 1020.89 1020.67 1020.51 1020.37 1020.25 1020.12 1019.97 1019.80 1019.63 1019.48 1019.38 1019.37 1019.45 1019.62 1019.85 1020.12 1020.39 1020.60 1020.73 1020.78 1020.74 1020.66 1020.54 1020.42 1020.34 1020.30 1020.30 1020.33
1020.99 1020.89 1020.84 1020.89 1021.05 1021.32 1021.64 1021.98 1022.26 1022.43 1022.47 1022.37 1022.16 1021.89 1021.60 1021.33 1021.11 1020.95 1020.84 1020.74 1020.64 1020.52 1020.37 1020.21 1020.06 1019.97 1019.95 1020.04 1020.24 1020.51 1020.84 1021.17 1021.45 1021.66 1021.77 1021.78 1021.72 1021.60 1021.47 1021.36 1021.27 1021.22 1021.19
1021.27 1021.14 1021.05 1021.07 1021.21 1021.47 1021.82 1022.20 1022.53 1022.77 1022.86 1022.80 1022.62 1022.37 1022.09 1021.82 1021.61 1021.47 1021.37 1021.30 1021.23 1021.13 1021.00 1020.85 1020.71 1020.61 1020.60 1020.70 1020.91 1021.21 1021.57 1021.95 1022.29 1022.55 1022.72 1022.78 1022.74 1022.64 1022.50 1022.36 1022.23 1022.12 1022.03
1021.54 1021.38 1021.26 1021.24 1021.35 1021.60 1021.97 1022.37 1022.75 1023.04 1023.19 1023.20 1023.07 1022.85 1022.61 1022.37 1022.18 1022.06 1021.98 1021.94 1021.89 1021.82 1021.71 1021.57 1021.44 1021.35 1021.34 1021.43 1021.63 1021.93 1022.30 1022.70 1023.07 1023.36 1023.56 1023.66 1023.65 1023.56 1023.42 1023.27 1023.11 1022.95 1022.81
1021.77 1021.61 1021.46 1021.40 1021.49 1021.72 1022.08 1022.50 1022.92 1023.26 1023.48 1023.56 1023.50 1023.35 1023.16 1022.97 1022.82 1022.72 1022.67 1022.65 1022.62 1022.57 1022.49 1022.37 1022.25 1022.16 1022.15 1022.22 1022.41 1022.68 1023.03 1023.41 1023.76 1024.06 1024.27 1024.38 1024.39 1024.31 1024.19 1024.03 1023.85 1023.67 1023.48
Thickness
5766 5769 5770 5771 5771 5771 5771 5770 5770 5769 5768 5767 5766 5765 5765 5765 5764 5764 5763 5762 5761 5761 5760 5760 5760 5760 5760 5760 5760 5760 5761 5761 5762 5763 5763 5764 5764 5765 5766 5766 5766 5767 5768
5768 5769 5769 5769 5769 5769 5769 5769 5768 5767 5766 5765 5764 5763 5763 5762 5762 5761 5761 5760 5759 5759 5758 5758 5757 5758 5758 5758 5758 5758 5759 5759 5760 5760 5761 5761 5762 5763 5765 5765 5764 5765 5766
5767 5767 5767 5767 5767 5767 5766 5766 5765 5765 5764 5764 5762 5762 5761 5761 5760 5759 5758 5758 5757 5756 5756 5756 5755 5756 5756 5756 5756 5756 5756 5757 5758 5758 5758 5759 5760 5762 5763 5763 5763 5763 5764
5766 5766 5766 5766 5765 5765 5765 5764 5764 5763 5762 5762 5761 5760 5759 5759 5758 5757 5756 5756 5755 5754 5754 5753 5753 5753 5754 5754 5754 5754 5755 5755 5756 5756 5756 5757 5758 5759 5760 5760 5761 5761 5762
5764 5763 5763 5763 5763 5763 5763 5762 5762 5761 5761 5760 5759 5758 5757 5757 5756 5755 5754 5754 5753 5752 5751 5751 5751 5751 5751 5751 5752 5752 5753 5753 5753 5753 5754 5755 5756 5757 5757 5758 5758 5759 5760
5761 5761 5761 5761 5761 5761 5761 5760 5760 5759 5759 5757 5757 5756 5756 5755 5754 5753 5752 5752 5751 5750 5750 5749 5749 5749 5749 5749 5749 5750 5750 5750 5750 5750 5751 5752 5753 5754 5755 5755 5756 5757 5757
5759 5759 5759 5759 5760 5759 5759 5759 5758 5757 5756 5755 5755 5754 5754 5753 5752 5751 5750 5750 5749 5749 5748 5747 5747 5747 5747 5747 5747 5747 5747 5747 5748 5748 5748 5749 5750 5751 5752 5753 5753 5754 5755
5757 5757 5757 5757 5758 5758 5757 5756 5756 5755 5754 5753 5753 5752 5751 5751 5751 5750 5749 5748 5747 5747 5746 5746 5745 5745 5745 5745 5745 5745 5745 5745 5745 5745 5745 5746 5747 5748 5749 5750 5750 5752 5752
5755 5755 5754 5755 5756 5755 5754 5754 5754 5753 5752 5752 5751 5751 5750 5749 5749 5748 5747 5746 5746 5745 5745 5744 5743 5743 5743 5743 5743 5743 5743 5742 5742 5742 5742 5743 5744 5745 5746 5747 5747 5748 5749
5751 5752 5752 5752 5753 5752 5752 5752 5752 5751 5750 5750 5749 5749 5748 5748 5747 5746 5746 5745 5744 5744 5743 5743 5742 5742 5742 5741 5741 5740 5740 5739 5739 5739 5739 5740 5741 5742 5742 5743 5744 5745 5746
5747 5748 5749 5749 5750 5750 5750 5750 5749 5749 5748 5748 5747 5747 5746 5746 5745 5744 5744 5743 5743 5742 5742 5741 5741 5740 5740 5739 5739 5738 5737 5736 5736 5736 5737 5738 5739 5739 5739 5740 5741 5742 5743
5742 5745 5747 5747 5747 5747 5748 5748 5747 5746 5746 5746 5745 5745 5745 5744 5743 5743 5742 5742 5742 5741 5740 5740 5739 5739 5738 5737 5736 5735 5735 5734 5734 5734 5734 5736 5738 5737 5736 5736 5737 5738 5740
5743 5744 5745 5746 5745 5745 5745 5745 5745 5744 5744 5744 5744 5743 5743 5742 5741 5741 5740 5740 5740 5739 5739 5738 5737 5737 5736 5735 5734 5733 5732 5731 5731 5731 5731 5732 5733 5732 5732 5733 5734 5735 5736
5740 5742 5743 5744 5743 5743 5743 5743 5742 5742 5742 5742 5742 5742 5741 5740 5739 5738 5738 5738 5737 5737 5736 5736 5735 5735 5734 5733 5732 5730 5729 5729 5728 5728 5728 5728 5728 5728 5728 5729 5730 5731 5733
5738 5739 5741 5742 5741 5741 5741 5741 5740 5740 5740 5740 5740 5740 5740 5738 5737 5737 5736 5736 5735 5735 5734 5734 5733 5732 5731 5730 5728 5727 5726 5726 5725 5724 5724 5724 5725 5724 5725 5726 5726 5727 5729
5736 5737 5739 5740 5740 5740 5739 5738 5738 5738 5738 5738 5738 5738 5738 5737 5736 5735 5734 5734 5733 5733 5733 5732 5731 5730 5728 5727 5726 5724 5724 5723 5722 5721 5721 5721 5721 5720 5721 5721 5722 5723 5725
5735 5737 5737 5738 5738 5737 5737 5736 5736 5736 5736 5736 5735 5735 5735 5735 5734 5733 5732 5732 5731 5731 5731 5730 5729 5728 5726 5724 5722 5721 5721 5719 5718 5718 5717 5717 5716 5716 5717 5717 5718 5719 5720
5734 5734 5736 5737 5735 5734 5734 5734 5734 5734 5733 5733 5733 5732 5733 5733 5732 5732 5731 5729 5729 5729 5729 5727 5725 5723 5722 5720 5718 5718 5717 5716 5715 5714 5713 5712 5712 5712 5712 5712 5713 5714 5715
5733 5733 5733 5733 5732 5731 5731 5731 5731 5731 5730 5730 5730 5730 5730 5730 5730 5729 5728 5727 5727 5726 5725 5725 5722 5720 5718 5716 5716 5714 5713 5712 5712 5711 5710 5709 5708 5707 5707 5707 5707 5708 5710
5731 5731 5731 5730 5730 5729 5728 5728 5727 5727 5726 5726 5726 5726 5727 5727 5727 5727 5725 5725 5724 5723 5722 5721 5719 5718 5716 5714 5714 5711 5709 5708 5708 5707 5706 5706 5705 5704 5703 5703 5703 5703 5704
5728 5728 5728 5727 5726 5726 5724 5723 5721 5720 5721 5722 5723 5723 5724 5724 5724 5723 5722 5722 5721 5720 5718 5718 5717 5714 5712 5712 5708 5704 5703 5704 5703 5702 5702 5701 5701 5700 5699 5698 5698 5698 5699
5725 5725 5725 5725 5724 5724 5723 5722 5720 5719 5718 5719 5719 5720 5721 5721 5721 5720 5720 5718 5718 5717 5716 5715 5714 5711 5709 5708 5704 5698 5693 5694 5696 5698 5697 5697 5696 5695 5695 5694 5694 5694 5694
5723 5724 5725 5723 5723 5723 5722 5720 5718 5716 5715 5714 5715 5716 5717 5718 5718 5717 5717 5716 5715 5714 5712 5711 5711 5708 5705 5705 5704 5699 5690 5685 5687 5690 5691 5691 5691 5691 5690 5690 5689 5689 5690
5723 5724 5723 5722 5721 5721 5720 5718 5715 5711 5708 5709 5711 5712 5713 5714 5714 5714 5714 5713 5712 5711 5710 5709 5708 5706 5704 5700 5700 5699 5696 5693 5686 5682 5684 5686 5687 5686 5686 5686 5685 5685 5685
5723 5722 5722 5721 5719 5719 5718 5716 5713 5710 5709 5708 5709 5709 5709 5710 5710 5711 5710 5710 5709 5707 5707 5706 5705 5704 5702 5699 5697 5696 5694 5691 5688 5682 5677 5679 5681 5681 5681 5681 5681 5681 5680
5721 5720 5719 5718 5716 5716 5715 5714 5712 5709 5707 5705 5705 5704 5704 5705 5706 5706 5706 5706 5705 5704 5703 5702 5701 5700 5699 5697 5695 5694 5691 5688 5684 5681 5676 5674 5674 5675 5677 5677 5677 5676 5676